• en France
  • Liste des pays
  • À 7 jours
  • Température de l'eau
  • Carte satellitaire
  • Carte météo
  • Widgets météo
  • user-avatar
    Se connecter

    Météo par heure à Hadiyal

    Ce jour, 23 Octobre, Mardi

    Heure Température Précipitation Vent Pression Humidité
    00:00 +6°C° 0 mm 1 m/s 610 mmHg 79%
    01:00 +6°C° 0 mm 1 m/s 610 mmHg 75%
    02:00 +6°C° 0 mm 1 m/s 610 mmHg 73%
    03:00 +7°C° 0 mm 1 m/s 610 mmHg 76%
    04:00 +6°C° 0 mm 1 m/s 610 mmHg 75%
    05:00 +6°C° 0 mm 1 m/s 610 mmHg 73%
    06:00 +6°C° 0 mm 1 m/s 610 mmHg 72%
    07:00 +8°C° 0 mm 1 m/s 610 mmHg 65%
    08:00 +9°C° 0 mm 1 m/s 611 mmHg 59%
    09:00 +10°C° 0 mm 2 m/s 612 mmHg 52%
    10:00 +12°C° 0 mm 2 m/s 612 mmHg 50%
    11:00 +13°C° 0 mm 2 m/s 612 mmHg 48%
    12:00 +13°C° 0 mm 2 m/s 612 mmHg 46%
    13:00 +13°C° 0 mm 2 m/s 612 mmHg 47%
    14:00 +13°C° 0 mm 2 m/s 612 mmHg 47%
    15:00 +13°C° 0 mm 2 m/s 611 mmHg 48%
    16:00 +10°C° 0 mm 2 m/s 611 mmHg 54%
    17:00 +9°C° 0 mm 1 m/s 610 mmHg 60%
    18:00 +7°C° 0 mm 1 m/s 609 mmHg 66%
    19:00 +7°C° 0 mm 1 m/s 609 mmHg 62%
    20:00 +6°C° 0 mm 2 m/s 609 mmHg 58%
    21:00 +6°C° 0 mm 2 m/s 609 mmHg 54%
    22:00 +5°C° 0 mm 2 m/s 609 mmHg 56%
    23:00 +5°C° 0 mm 2 m/s 608 mmHg 58%

    Demain, 24 Octobre, Mercredi

    Heure Température Précipitation Vent Pression Humidité
    00:00 +5°C° 0 mm 2 m/s 608 mmHg 60%
    01:00 +5°C° 0 mm 2 m/s 608 mmHg 64%
    02:00 +4°C° 0 mm 3 m/s 608 mmHg 69%
    03:00 +4°C° 0 mm 3 m/s 608 mmHg 74%
    04:00 +4°C° 0 mm 3 m/s 607 mmHg 75%
    05:00 +4°C° 0 mm 3 m/s 607 mmHg 75%
    06:00 +4°C° 0 mm 3 m/s 607 mmHg 76%
    07:00 +5°C° 0 mm 3 m/s 607 mmHg 70%
    08:00 +8°C° 0 mm 3 m/s 608 mmHg 63%
    09:00 +10°C° 0 mm 3 m/s 608 mmHg 57%
    10:00 +11°C° 0 mm 3 m/s 608 mmHg 53%
    11:00 +12°C° 0 mm 4 m/s 608 mmHg 50%
    12:00 +13°C° 0 mm 4 m/s 607 mmHg 46%
    13:00 +12°C° 0 mm 4 m/s 607 mmHg 48%
    14:00 +12°C° 0 mm 4 m/s 606 mmHg 50%
    15:00 +12°C° 0 mm 4 m/s 605 mmHg 51%
    16:00 +10°C° 0 mm 4 m/s 605 mmHg 57%
    17:00 +8°C° 0 mm 4 m/s 604 mmHg 62%
    18:00 +7°C° 0 mm 4 m/s 603 mmHg 67%
    19:00 +7°C° 0 mm 4 m/s 603 mmHg 69%
    20:00 +7°C° 0 mm 4 m/s 602 mmHg 71%
    21:00 +7°C° 0 mm 4 m/s 602 mmHg 72%
    22:00 +7°C° 0 mm 4 m/s 602 mmHg 73%
    23:00 +7°C° 0 mm 4 m/s 601 mmHg 74%

    Après-demain, 25 Octobre, Jeudi

    Heure Température Précipitation Vent Pression Humidité
    00:00 +6°C° 0 mm 4 m/s 601 mmHg 75%
    01:00 +6°C° 0 mm 4 m/s 601 mmHg 76%
    02:00 +6°C° 0 mm 4 m/s 601 mmHg 76%
    03:00 +6°C° 0 mm 4 m/s 601 mmHg 77%
    04:00 +6°C° 0 mm 4 m/s 600 mmHg 77%
    05:00 +6°C° 0 mm 4 m/s 600 mmHg 78%
    06:00 +5°C° 0 mm 4 m/s 600 mmHg 78%
    07:00 +7°C° 0 mm 5 m/s 601 mmHg 71%
    08:00 +9°C° 0 mm 5 m/s 602 mmHg 63%
    09:00 +11°C° 0 mm 6 m/s 602 mmHg 55%
    10:00 +13°C° 0.1 mm 6 m/s 602 mmHg 52%
    11:00 +14°C° 0.1 mm 6 m/s 602 mmHg 49%
    12:00 +15°C° 0.1 mm 7 m/s 602 mmHg 46%
    13:00 +14°C° 0.1 mm 7 m/s 601 mmHg 47%
    14:00 +14°C° 0.1 mm 7 m/s 601 mmHg 48%
    15:00 +14°C° 0.1 mm 7 m/s 600 mmHg 49%
    16:00 +12°C° 0.3 mm 5 m/s 601 mmHg 55%
    17:00 +11°C° 0.3 mm 4 m/s 601 mmHg 61%
    18:00 +9°C° 0.3 mm 3 m/s 601 mmHg 67%
    19:00 +9°C° 0.3 mm 3 m/s 601 mmHg 70%
    20:00 +8°C° 0.3 mm 3 m/s 602 mmHg 74%
    21:00 +8°C° 0.3 mm 3 m/s 602 mmHg 78%
    22:00 +7°C° 0.1 mm 3 m/s 602 mmHg 78%
    23:00 +7°C° 0.1 mm 3 m/s 602 mmHg 79%

    26 Octobre, Vendredi

    Heure Température Précipitation Vent Pression Humidité
    00:00 +7°C° 0.1 mm 3 m/s 602 mmHg 79%
    01:00 +5°C° 0.4 mm 3 m/s 602 mmHg 81%
    02:00 +5°C° 0.4 mm 3 m/s 602 mmHg 83%
    03:00 +4°C° 0.4 mm 3 m/s 603 mmHg 84%
    04:00 +4°C° 1 mm 3 m/s 603 mmHg 86%
    05:00 +3°C° 1 mm 3 m/s 603 mmHg 88%
    06:00 +3°C° 1 mm 3 m/s 604 mmHg 89%
    07:00 +3°C° 1.6 mm 3 m/s 604 mmHg 90%
    08:00 +2°C° 1.6 mm 3 m/s 604 mmHg 90%
    09:00 +2°C° 1.6 mm 3 m/s 605 mmHg 90%
    10:00 +3°C° 1.8 mm 2 m/s 605 mmHg 91%
    11:00 +3°C° 1.8 mm 2 m/s 605 mmHg 92%
    12:00 +2°C° 1.8 mm 2 m/s 605 mmHg 93%
    13:00 +2°C° 1.3 mm 2 m/s 605 mmHg 92%
    14:00 +2°C° 1.3 mm 2 m/s 605 mmHg 91%
    15:00 +2°C° 1.3 mm 2 m/s 605 mmHg 90%
    16:00 +2°C° 0.3 mm 2 m/s 605 mmHg 89%
    17:00 +1°C° 0.3 mm 2 m/s 605 mmHg 89%
    18:00 +1°C° 0.3 mm 2 m/s 606 mmHg 88%
    19:00 -1°C° 0 mm 2 m/s 606 mmHg 86%
    20:00 -1°C° 0 mm 2 m/s 606 mmHg 84%
    21:00 -2°C° 0 mm 2 m/s 606 mmHg 82%
    22:00 -3°C° 0 mm 2 m/s 606 mmHg 78%
    23:00 -3°C° 0 mm 2 m/s 606 mmHg 74%

    27 Octobre, Samedi

    Heure Température Précipitation Vent Pression Humidité
    00:00 -4°C° 0 mm 2 m/s 605 mmHg 70%
    01:00 -4°C° 0 mm 2 m/s 606 mmHg 68%
    02:00 -4°C° 0 mm 2 m/s 607 mmHg 67%
    03:00 -5°C° 0 mm 2 m/s 607 mmHg 65%
    04:00 -5°C° 0 mm 2 m/s 608 mmHg 64%
    05:00 -5°C° 0 mm 2 m/s 608 mmHg 62%
    06:00 -5°C° 0 mm 2 m/s 609 mmHg 61%
    07:00 -3°C° 0 mm 2 m/s 610 mmHg 63%
    08:00 +1°C° 0 mm 2 m/s 611 mmHg 64%
    09:00 +4°C° 0 mm 1 m/s 613 mmHg 66%
    10:00 +5°C° 0 mm 1 m/s 613 mmHg 67%
    11:00 +4°C° 0 mm 2 m/s 613 mmHg 69%
    12:00 +5°C° 0 mm 2 m/s 614 mmHg 70%
    13:00 +5°C° 0 mm 2 m/s 614 mmHg 70%
    14:00 +5°C° 0 mm 2 m/s 614 mmHg 70%
    15:00 +5°C° 0 mm 2 m/s 614 mmHg 70%
    16:00 +3°C° 0 mm 2 m/s 613 mmHg 67%
    17:00 +1°C° 0 mm 2 m/s 613 mmHg 65%
    18:00 -1°C° 0 mm 2 m/s 613 mmHg 62%
    19:00 -2°C° 0 mm 2 m/s 613 mmHg 63%
    20:00 -2°C° 0 mm 3 m/s 613 mmHg 63%
    21:00 -2°C° 0 mm 3 m/s 613 mmHg 63%
    22:00 -2°C° 0 mm 3 m/s 613 mmHg 65%
    23:00 -2°C° 0 mm 3 m/s 613 mmHg 67%

    28 Octobre, Dimanche

    Heure Température Précipitation Vent Pression Humidité
    00:00 -2°C° 0 mm 2 m/s 613 mmHg 69%
    01:00 -2°C° 0 mm 2 m/s 613 mmHg 68%
    02:00 -2°C° 0 mm 2 m/s 613 mmHg 67%
    03:00 -2°C° 0 mm 2 m/s 613 mmHg 66%
    04:00 -2°C° 0 mm 2 m/s 613 mmHg 64%
    05:00 -1°C° 0 mm 2 m/s 613 mmHg 63%
    06:00 -1°C° 0 mm 2 m/s 613 mmHg 62%
    07:00 +2°C° 0 mm 2 m/s 614 mmHg 62%
    08:00 +4°C° 0 mm 2 m/s 615 mmHg 63%
    09:00 +6°C° 0 mm 2 m/s 616 mmHg 64%
    10:00 +7°C° 0 mm 1 m/s 616 mmHg 66%
    11:00 +8°C° 0 mm 1 m/s 616 mmHg 68%
    12:00 +9°C° 0 mm 1 m/s 616 mmHg 71%
    13:00 +9°C° 0 mm 1 m/s 616 mmHg 69%
    14:00 +9°C° 0 mm 1 m/s 616 mmHg 67%
    15:00 +9°C° 0 mm 1 m/s 616 mmHg 65%
    16:00 +8°C° 0 mm 1 m/s 615 mmHg 63%
    17:00 +6°C° 0 mm 1 m/s 615 mmHg 60%
    18:00 +4°C° 0 mm 2 m/s 615 mmHg 58%
    19:00 +3°C° 0 mm 2 m/s 615 mmHg 55%
    20:00 +3°C° 0 mm 2 m/s 615 mmHg 52%
    21:00 +3°C° 0 mm 2 m/s 615 mmHg 49%
    22:00 +3°C° 0 mm 2 m/s 615 mmHg 48%
    23:00 +3°C° 0 mm 2 m/s 615 mmHg 47%

    29 Octobre, Lundi

    Heure Température Précipitation Vent Pression Humidité
    00:00 +3°C° 0 mm 2 m/s 615 mmHg 45%
    01:00 +3°C° 0 mm 2 m/s 615 mmHg 45%
    02:00 +3°C° 0 mm 2 m/s 615 mmHg 44%
    03:00 +3°C° 0 mm 2 m/s 615 mmHg 43%
    04:00 +3°C° 0 mm 2 m/s 615 mmHg 42%
    05:00 +3°C° 0 mm 2 m/s 615 mmHg 41%
    06:00 +3°C° 0 mm 2 m/s 615 mmHg 40%
    07:00 +5°C° 0 mm 2 m/s 616 mmHg 44%
    08:00 +6°C° 0 mm 2 m/s 617 mmHg 48%
    09:00 +9°C° 0 mm 1 m/s 617 mmHg 52%
    10:00 +10°C° 0 mm 1 m/s 617 mmHg 54%
    11:00 +10°C° 0 mm 2 m/s 618 mmHg 56%
    12:00 +10°C° 0 mm 2 m/s 618 mmHg 58%
    13:00 +11°C° 0 mm 1 m/s 617 mmHg 57%
    14:00 +11°C° 0 mm 1 m/s 617 mmHg 56%
    15:00 +11°C° 0 mm 1 m/s 617 mmHg 55%
    16:00 +8°C° 0 mm 2 m/s 616 mmHg 53%
    17:00 +7°C° 0 mm 2 m/s 615 mmHg 51%
    18:00 +5°C° 0 mm 2 m/s 615 mmHg 49%
    19:00 +5°C° 0 mm 2 m/s 615 mmHg 48%
    20:00 +4°C° 0 mm 2 m/s 614 mmHg 46%
    21:00 +4°C° 0 mm 2 m/s 614 mmHg 45%
    22:00 +4°C° 0 mm 2 m/s 614 mmHg 45%
    23:00 +4°C° 0 mm 2 m/s 614 mmHg 45%
    Voir plus